Location: Palo Alto
(37.4420°N, 122.1420°W)
Time: 01:03:59
(UTC-07:00)

Daily predictions for brighter satellites

Satellite Brightness Start Highest point End
(mag) Time Altitude Azimuth Time Altitude Azimuth Time Altitude Azimuth
CENTAUR R/B 4.2 03:17:17 29° NNE 03:17:17 29° NNE 03:20:29 10° NNE
CZ-2D R/B 4.2 03:32:46 10° NNE 03:34:39 22° NNE 03:34:39 22° NNE
Cosmos 2360 Rocket 4.1 03:39:41 24° E 03:39:41 24° E 03:42:57 10° NE
Cosmos 1980 Rocket 4.4 03:42:46 17° N 03:42:46 17° N 03:44:14 10° N
Resurs 1-4 Rocket 4.3 03:37:14 10° NNE 03:38:45 20° NNE 03:38:45 20° NNE
Okean O Rocket 4.5 03:45:44 10° ENE 03:47:17 13° E 03:47:17 13° E
Cosmos 2263 Rocket 4.3 03:52:41 10° N 03:54:17 19° N 03:54:17 19° N
FALCON 9 R/B 4.2 04:00:24 62° WSW 04:03:26 77° S 04:47:33 10° ESE
Lacrosse 5 4.4 04:14:13 12° SE 04:14:13 12° SE 04:14:33 10° SE
ADEOS II 4.1 04:05:46 10° NE 04:09:51 23° E 04:11:50 18° SE
Lacrosse 4 Rocket 4.0 04:23:26 10° N 04:26:36 20° NE 04:29:47 10° ESE
CZ-4B R/B 4.0 04:38:30 10° NNE 04:43:57 48° E 04:46:52 25° SSE
Cosmos 2322 Rocket 3.6 04:51:44 25° NNW 04:51:44 25° NNW 04:55:03 10° N
Cosmos 2327 Rocket 4.4 04:44:12 10° N 04:50:31 85° E 04:56:01 14° S
SL-16 R/B 3.6 04:55:36 25° NW 04:55:36 25° NW 04:59:07 10° N
SL-08 ROCKET BODY 4.1 04:48:37 10° NNW 04:54:27 70° W 04:54:41 69° WSW
Cosmos 2237 4.3 04:53:26 49° S 04:54:57 71° ESE 05:00:40 10° NNE
ISS -1.4 04:57:03 20° ESE 04:57:03 20° ESE 04:58:13 10° ESE
Nadezhda 1 Rocket 3.9 04:55:30 38° S 04:58:02 86° E 05:04:08 10° N
COSMOS 2428 3.1 04:56:23 33° S 04:58:49 59° ESE 05:04:23 10° NNE
USA 215 3.3 04:56:38 10° SE 05:03:12 82° NE 05:09:47 10° NW
ADEOS Rocket 4.3 05:00:27 10° NNW 05:03:13 21° NW 05:03:13 21° NW
Cosmos 2219 Rocket 3.6 05:00:28 10° S 05:05:29 36° ESE 05:10:31 10° NE
CENTAUR R/B 4.1 05:04:27 19° NW 05:05:30 19° NW 05:10:18 10° N
Cosmos 2074 Rocket 4.0 05:07:05 10° NNW 05:13:11 58° W 05:16:33 27° SSW
Cosmos 1570 Rocket 3.9 05:11:44 42° SSW 05:13:35 89° E 05:18:50 10° NNE
CZ-4B R/B 3.5 05:12:21 10° N 05:14:45 38° NNW 05:14:45 38° NNW
Cosmos 1844 Rocket 3.8 05:10:59 10° N 05:16:19 45° ENE 05:21:37 10° SE
IRS-1C Rocket 3.9 05:11:28 10° N 05:16:44 79° WNW 05:19:02 35° SSW
CZ-2D R/B 4.3 05:15:05 10° NNW 05:15:59 12° NW 05:15:59 12° NW
Meteor 2-13 Rocket 4.3 05:11:29 10° NNW 05:17:36 72° W 05:23:40 10° S
Cosmos 2360 Rocket 2.7 05:21:28 37° WNW 05:22:05 39° WNW 05:27:22 10° N
Okean O Rocket 1.8 05:20:11 10° N 05:24:29 49° WNW 05:24:46 49° W
BREEZE-M DEB (TANK) 3.0 05:25:06 46° SW 05:26:19 89° S 05:38:05 10° NE
Cosmos 1340 3.8 05:27:50 29° NW 05:27:50 29° NW 05:30:11 10° N
Meteor 2-4 Rocket 4.4 05:24:32 10° S 05:30:01 54° E 05:35:23 10° NNE
Cosmos 2237 Rocket 3.8 05:25:29 10° SSE 05:30:31 34° ESE 05:35:35 10° NE
OAO 3 Copernicus 4.4 05:30:55 39° SW 05:32:36 62° S 05:37:33 10° E
Okean-O 3.4 05:30:23 10° NNE 05:34:45 54° E 05:39:04 10° S
Cosmos 1666 3.6 05:32:16 10° N 05:36:03 50° E 05:39:49 10° SSE
ASTRO E2 4.4 05:37:42 19° S 05:37:42 19° S 05:40:10 10° SSE
Cosmos 1743 2.6 05:34:43 10° N 05:38:36 84° W 05:42:25 10° S
PAYLOAD B 4.5 05:33:55 10° N 05:39:18 49° WNW 05:42:32 23° SW
Meteor 1-31 Rocket 3.1 05:36:00 10° NNE 05:39:46 63° E 05:43:32 10° S
SAR-Lupe-3 4.4 05:40:45 10° S 05:44:10 59° W 05:47:38 10° NNW
Cosmos 1025 Rocket 3.7 05:40:08 10° S 05:44:25 58° E 05:48:44 10° NNE
DELTA 2 R/B (1) 3.5 05:42:06 29° W 05:45:01 85° NNW 05:50:36 10° ENE
Cosmos 2285 Rocket 4.4 05:38:56 10° S 05:45:17 68° ESE 05:51:42 10° NNE
EO 1 Del DPAF 3.7 05:44:47 33° SW 05:45:36 37° W 05:49:12 10° NNW
Cosmos 1455 Rocket 4.1 05:43:00 10° NNW 05:46:11 26° WNW 05:46:11 26° WNW
Cosmos 2333 Rocket 2.6 05:41:20 10° S 05:46:57 66° ESE 05:52:38 10° NNE
ATLAS 5 CENTAUR R/B 4.0 05:42:38 10° NNW 05:48:09 36° NE 05:54:03 10° ESE
ADEOS II 2.5 05:44:47 10° N 05:49:40 40° WNW 05:52:47 20° SW
Lacrosse 5 3.5 05:53:34 16° SW 05:53:34 16° SW 05:55:31 10° SSW
NOSS 0 Rocket 4.2 05:49:45 10° SSW 05:55:53 70° ESE 06:02:01 10° NNE
Hubble Space Telescope 3.4 05:56:26 10° SSE 05:56:49 10° SSE 05:57:11 10° SSE
USA 116 3.8 05:53:24 10° S 05:57:25 78° WSW 06:02:02 10° NNW
Meteor 1-13 Rocket 4.5 05:58:43 10° SSW 06:03:57 44° WNW 06:09:17 10° N
Cosmos 1238 Rocket 3.3 06:04:34 23° W 06:04:42 23° W 06:07:09 10° NNW
Aureole 2 Rocket 3.1 06:01:21 10° S 06:05:05 59° ESE 06:08:31 10° NNE
Lacrosse 4 Rocket 2.0 06:01:33 10° NW 06:05:21 34° WSW 06:09:14 10° S
Tiangong 2 1.5 06:03:26 17° WNW 06:05:42 56° NNE 06:08:47 10° E
Cosmos 1295 Rocket 4.4 05:59:48 10° N 06:06:02 75° W 06:12:09 10° S
Cosmos 1437 3.2 06:03:56 10° S 06:07:10 63° E 06:10:25 10° NNE
SJ-6F 4.3 06:04:29 10° N 06:08:34 83° WNW 06:12:38 10° SSW
Meteor PRIRODA 4.4 06:08:17 10° N 06:11:40 32° WNW 06:15:01 10° SW
Cosmos 1814 Rocket 4.0 06:07:33 10° SSW 06:12:46 86° ESE 06:17:57 10° NNE
Iridium 2 3.7 06:09:19 10° N 06:13:09 85° E 06:16:59 10° S
Cosmos 2366 rocket 4.4 06:07:26 10° N 06:13:47 70° E 06:20:07 10° SSE
Cosmos 1844 3.7 06:12:54 10° NNW 06:18:39 72° WSW 06:24:17 10° SSE
SKYMED 2 3.9 06:16:53 10° SSE 06:21:10 72° ENE 06:25:31 10° N
Cosmos 2058 Rocket 4.2 06:17:16 10° N 06:21:38 49° E 06:25:57 10° SSE
Okean 1-7 Rocket 4.1 06:17:59 10° SSW 06:22:13 39° WNW 06:26:27 10° N
CZ-4B R/B 4.5 06:19:54 10° NNW 06:24:07 22° WNW 06:28:17 10° WSW
SL-16 R/B 3.6 06:20:13 10° S 06:25:28 41° ESE 06:30:46 10° NE
Cosmos 1867 3.9 06:22:41 10° NNW 06:28:10 74° ENE 06:33:34 10° SE
ERS-2 3.5 06:27:48 10° NNW 06:30:41 22° WNW 06:33:33 10° WSW
ISS -1.7 06:29:47 11° WSW 06:31:05 12° SW 06:32:33 10° SSW
GPS 2-04 Rocket1 4.0 06:31:01 10° SW 06:34:28 31° SSE 06:37:46 10° E
Cosmos 1980 3.8 06:31:17 10° SW 06:36:51 58° WNW 06:42:26 10° NNE
Okean 2 3.8 06:35:39 10° SSW 06:39:35 42° W 06:43:34 10° N
GENESIS II 4.4 06:36:54 10° SW 06:40:54 56° WNW 06:44:55 10° NNE
